This demonstration page uses our WeatherBlox Daily Observations layout. Learn more.

Left ArrowRight Arrow

Hourly Observations for November 16, 2015

Temp ( °F °C ) Dew Point ( °F °C ) Humidity (%) Winds ( mph kmh ) Pressure ( in mb ) Visibility ( mi km ) Precip ( " mm )
12:03 am 00:03 Mostly Cloudy 57 14 55 13 94 94 SSE 10 17 29.85 1011 7 11 0.00 0.00
12:24 am 00:24 Cloudy 57 14 55 13 94 94 SSE 13 20 29.85 1011 7 11 0.00 0.00
12:53 am 00:53 Cloudy 58 14.4 56 13.3 93 93 SSE 13 20 29.84 1010 7 11 0.00 0.03
1:53 am 01:53 Cloudy 58 14.4 56 13.3 93 93 SSE 12 19 29.81 1010 10 16 0.00 0.03
2:53 am 02:53 Mostly Clear 58 14.4 56 13.3 93 93 SE 12 19 29.78 1009 10 16 0.00 0.00
3:53 am 03:53 Mostly Clear 58 14.4 55 12.8 90 90 SE 12 19 29.76 1008 10 16 0.00 0.00
4:49 am 04:49 Partly Cloudy 57 14 55 13 94 94 SE 10 17 29.80 1009 7 11 0.00 0.00
4:53 am 04:53 Partly Cloudy 57 13.9 55 12.8 93 93 SE 12 19 29.74 1007 7 11 0.00 0.00
5:01 am 05:01 Mostly Cloudy 57 13.9 55 12.8 93 93 SE 10 17 29.80 1009 7 11 0.00 0.00
5:37 am 05:37 Cloudy with Mist and Fog 57 13.9 55 12.8 93 93 SE 13 20 29.77 1008 3 4 0.00 0.00
5:49 am 05:49 Cloudy with Mist and Fog 57 14 55 13 94 94 SE 15 24 29.77 1008 3 5 0.00 0.00
5:53 am 05:53 Cloudy with Mist and Fog 57 13.9 55 12.8 93 93 SE 13 20 29.72 1006 4 6 0.00 0.00
6:53 am 06:53 Cloudy with Mist and Fog 57 13.9 55 12.8 93 93 SE 18 30 29.71 1006 5 8 0.00 0.00
7:53 am 07:53 Mostly Cloudy 57 13.9 55 12.8 93 93 SE 15 24 29.70 1006 9 14 0.00 0.00
8:19 am 08:19 Mostly Cloudy 58 14.4 55 12.8 90 90 SE 16 26 29.71 1006 10 16 0.00 0.00
8:32 am 08:32 Partly Cloudy 57 14 55 13 94 94 SE 14 22 29.71 1006 10 16 0.00 0.00
8:53 am 08:53 Sunny 59 15 56 13.3 90 90 SE 13 20 29.68 1005 10 16 0.00 0.00
9:53 am 09:53 Sunny 62 16.7 56 13.3 80 80 SE 14 22 29.65 1004 10 16 0.00 0.00
10:53 am 10:53 Sunny 65 18.3 57 13.9 76 76 SSE 21 33 29.63 1003 10 16 0.00 0.00
11:53 am 11:53 Sunny 71 21.7 57 13.9 61 61 SSE 16 26 29.58 1002 10 16 0.00 0.00
12:53 pm 12:53 Sunny 76 24.4 57 13.9 52 52 SSE 15 24 29.51 999 10 16 0.00 0.00
1:53 pm 13:53 Sunny 83 28.3 39 3.9 21 21 SSW 23 37 29.44 997 10 16 0.00 0.00
2:53 pm 14:53 Sunny 83 28.3 38 3.3 20 20 SW 32 52 29.41 996 10 16 0.00 0.00
3:53 pm 15:53 Partly Cloudy 83 28.3 40 4.4 22 22 SW 25 41 29.38 995 10 16 0.00 0.00
4:53 pm 16:53 Mostly Sunny 81 27.2 43 6.1 26 26 S 21 33 29.35 994 10 16 0.00 0.00
5:53 pm 17:53 Mostly Cloudy 75 23.9 49 9.4 40 40 S 15 24 29.33 993 10 16 0.01 0.25
6:24 pm 18:24 Mostly Clear with Thunderstorms 70 21 57 14 64 64 SSE 15 24 29.32 993 10 16 0.00 0.00
6:39 pm 18:39 Mostly Cloudy with Nearby Thunderstorms 67 19.4 59 15 76 76 SE 17 28 29.35 994 10 16 0.00 0.03
6:53 pm 18:53 Mostly Cloudy with Nearby Thunderstorms 67 19.4 59 15 76 76 SE 14 22 29.36 994 10 16 0.00 0.03
7:36 pm 19:36 Mostly Clear with Nearby Thunderstorms 61 16 43 6 52 52 WNW 17 28 29.47 998 7 11 0.00 0.00
7:53 pm 19:53 Cloudy with Light Rain 61 16.1 39 3.9 44 44 WNW 25 41 29.46 998 9 14 0.01 0.25
8:53 pm 20:53 Mostly Cloudy 56 13.3 33 0.6 42 42 WNW 24 39 29.55 1001 10 16 0.00 0.03
9:53 pm 21:53 Clear 52 11.1 31 -0.6 45 45 WNW 14 22 29.62 1003 10 16 0.00 0.00
10:53 pm 22:53 Clear 49 9.4 30 -1.1 48 48 WSW 13 20 29.64 1004 10 16 0.00 0.00
11:53 pm 23:53 Clear 48 8.9 27 -2.8 44 44 W 16 26 29.64 1004 10 16 0.00 0.00

Powered by AerisWeather